SCP
0 0 0 0 0 0 0 0 0 0 0 0 0 0 0 0 0 0 0 0 0 0 0 0 0 0 0 0 0 0 0 0 0 0 0 0 0 0 0 0 0 0 0
0 0 0 0 0 0 0 0 0 0 0 0 0 0 0 0 0 0 0 0 0 1 1 0 0 0 0 0 0 0 0 0 0 0 0 0 0 0 0 0 0 0 0
0 0 0 0 0 0 0 0 0 0 0 0 0 0 0 0 0 0 0 0 0 0 1 1 1 0 0 0 0 0 0 0 0 0 0 0 0 0 0 0 0 0 0
0 0 0 0 0 0 0 0 0 0 0 0 0 0 0 0 0 0 0 0 0 0 0 1 1 1 0 0 0 0 0 0 0 0 0 0 0 0 0 0 0 0 0
0 0 0 0 0 0 0 0 0 0 0 0 0 0 0 0 0 0 0 0 0 0 0 0 0 1 0 0 0 0 0 0 0 0 0 0 0 0 0 0 0 0 0
0 0 0 0 0 0 0 0 0 0 0 0 0 0 0 0 0 0 0 0 0 0 0 0 0 0 0 0 0 0 0 0 0 0 0 0 0 0 0 0 0 0 0
0 0 0 0 0 0 0 0 0 0 0 0 0 0 0 0 0 0 0 0 0 0 0 0 0 0 0 0 0 0 0 0 0 0 0 0 0 0 0 0 0 0 0
0 0 0 0 0 0 0 0 0 0 0 0 0 0 0 0 0 0 0 0 0 0 0 0 0 0 0 0 0 0 0 0 0 0 0 0 0 0 0 0 0 0 0
0 0 0 0 0 0 0 0 0 0 0 0 0 0 0 0 0 0 0 0 0 0 0 0 0 0 0 0 0 0 0 0 0 0 0 0 0 0 0 0 0 0 0
0 0 0 0 0 0 0 0 0 0 0 0 0 0 0 0 0 0 0 0 0 0 0 0 0 0 0 0 0 0 0 0 0 0 0 0 0 0 0 0 0 0 0
0 0 0 0 0 0 0 0 0 0 0 0 0 0 0 0 0 0 0 0 0 0 0 0 0 0 0 0 0 0 0 0 0 0 0 0 0 0 0 0 0 0 0
0 0 0 0 0 0 0 0 0 0 0 0 0 0 0 0 0 0 0 0 0 0 0 0 0 0 0 0 0 0 0 0 0 0 0 0 0 0 0 0 0 0 0
0 0 0 0 0 0 0 0 0 0 0 0 0 0 0 0 0 0 0 0 0 0 0 0 0 0 0 0 0 0 0 0 0 0 0 0 0 0 0 0 0 0 0
0 0 0 0 0 0 0 0 0 0 0 0 0 0 0 0 0 0 0 0 0 0 0 0 0 0 0 0 0 0 0 0 0 0 0 0 0 0 0 0 0 0 0
0 0 0 0 0 0 0 0 0 0 0 0 0 0 0 0 0 0 0 0 0 0 0 0 0 0 0 0 0 0 0 0 0 0 0 0 0 0 0 0 0 0 0
0 0 0 0 0 0 0 0 0 0 0 0 0 0 0 0 0 0 0 0 0 0 0 0 0 0 0 0 0 0 0 0 0 0 0 0 0 0 0 0 0 0 0
0 0 0 0 0 0 0 0 0 0 0 0 0 0 0 0 0 0 0 0 0 0 0 0 0 0 0 0 0 0 0 0 0 0 0 0 0 0 0 0 0 0 0
0 0 0 0 0 0 0 0 0 0 0 0 0 0 0 0 0 0 0 0 0 0 0 0 0 0 0 0 0 0 0 0 0 0 0 0 0 0 0 0 0 0 0
0 0 0 0 0 0 0 0 0 0 0 0 0 0 0 0 0 0 0 0 0 0 0 0 0 0 0 0 0 0 0 0 0 0 0 0 0 0 0 0 0 0 0
0 0 0 0 0 0 0 0 0 0 0 0 0 0 0 0 0 0 0 0 0 0 0 0 0 0 0 0 0 0 0 0 0 0 0 0 0 0 0 0 0 0 0
0 0 0 0 0 0 0 0 0 0 0 0 0 0 0 0 0 0 0 0 0 0 0 0 0 0 0 0 0 0 0 0 0 0 0 0 0 0 0 0 0 0 0
0 0 0 0 0 0 0 0 0 0 0 0 0 0 0 0 0 0 0 0 0 0 0 0 0 0 0 0 0 0 0 0 0 0 0 0 0 0 0 0 0 0 0
0 0 0 0 0 0 0 0 0 0 0 0 0 0 0 0 0 0 0 0 0 0 0 0 0 0 0 0 0 0 0 0 0 0 0 0 0 0 0 0 0 0 0
0 0 0 0 0 0 0 0 0 0 0 0 0 0 0 0 0 0 0 0 0 0 0 0 0 0 0 0 0 0 0 0 0 0 0 0 0 0 0 0 0 0 0
0 0 0 0 0 0 0 0 0 0 0 0 0 0 0 0 0 0 0 0 0 0 0 0 0 0 0 0 0 0 0 0 0 0 0 0 0 0 0 0 0 0 0
0 0 0 0 0 0 0 0 0 0 0 0 0 0 0 0 0 0 0 0 0 0 0 0 0 0 0 0 0 0 0 0 0 0 0 0 0 0 0 0 0 0 0
Wind_Speed
4 3 3 2 3 2 2 2 2 4 4 4 4 4 3 2 3 3 3 10 9 5 2 2 4 3 4 4 4 7 8 7 6 7 7 6 6 5 4 3 2 2 2
4 4 3 3 3 3 2 2 2 3 4 3 4 4 3 2 3 4 4 6 11 9 4 3 4 3 4 5 4 5 7 6 5 4 4 4 4 3 3 3 2 1 1
5 4 3 3 3 3 3 2 2 2 3 3 3 3 2 2 2 3 4 4 5 10 11 6 6 6 6 6 6 7 8 7 7 6 6 6 5 3 2 1 0 0 1
5 4 4 4 4 4 3 3 3 2 2 2 2 1 1 1 1 2 3 3 3 4 8 12 9 7 7 7 7 8 8 7 6 6 5 4 3 1 1 2 1 1 0
6 5 4 4 4 3 3 4 3 3 3 2 1 1 1 0 0 1 2 3 3 4 4 8 12 11 9 8 7 6 6 6 5 5 4 3 2 1 1 1 1 1 1
6 5 4 4 5 4 4 3 3 2 2 3 2 2 2 1 1 1 1 2 2 3 4 4 4 6 10 11 8 6 5 5 5 4 4 3 2 1 1 1 1 2 2
5 4 3 4 5 5 6 6 3 3 2 3 3 2 2 2 1 1 1 1 1 1 2 2 2 3 3 8 9 8 6 7 7 7 6 5 3 1 0 1 2 3 4
5 4 4 4 4 4 5 5 4 3 2 2 3 3 1 3 2 1 1 1 1 1 1 1 1 2 2 2 4 7 8 7 8 7 7 6 5 2 1 1 1 3 3
5 5 5 5 5 5 5 6 5 6 4 2 2 4 4 3 2 3 2 1 1 1 1 1 1 0 0 1 2 4 6 7 6 7 6 6 6 5 4 2 3 5 7
5 5 6 5 5 4 5 6 5 4 5 3 2 1 2 4 2 2 3 2 2 3 3 2 3 2 2 1 1 1 4 5 5 5 5 7 7 7 9 8 8 8 9
4 5 6 5 5 5 5 5 5 5 4 5 4 3 3 2 2 2 2 3 2 3 3 3 3 3 3 3 2 1 2 3 4 5 5 6 7 7 8 8 8 8 7
3 5 5 5 5 4 4 5 5 6 5 5 4 4 5 5 5 4 3 2 3 3 3 3 4 4 4 4 4 5 4 2 3 4 5 6 6 6 6 6 6 6 6
2 3 4 4 4 4 4 4 4 4 5 5 6 5 4 4 4 4 4 2 2 3 2 3 4 4 5 4 4 8 6 5 3 3 4 4 4 4 5 5 5 5 5
1 3 4 4 4 4 4 4 3 4 4 5 6 6 4 4 4 4 5 4 2 2 2 4 3 5 5 5 6 8 5 8 6 5 4 3 2 1 2 3 4 4 5
2 3 4 4 4 4 4 4 3 4 4 4 5 5 4 4 5 4 4 5 4 3 3 4 3 4 4 4 7 6 5 9 9 8 7 6 4 2 2 1 1 2 4
1 2 3 3 4 4 4 4 3 3 3 4 3 5 5 4 4 5 5 5 5 5 4 3 3 2 4 5 9 6 7 12 12 11 10 9 7 5 4 4 3 3 5
2 3 3 4 4 4 3 3 2 2 3 2 2 3 5 5 5 5 5 5 6 6 6 3 2 2 4 5 5 5 5 6 6 12 12 11 9 8 7 6 5 4 5
4 4 4 4 4 4 4 4 4 3 3 2 2 3 4 4 6 5 5 7 6 7 6 6 3 3 4 4 4 5 4 6 5 10 13 12 11 10 9 9 8 6 6
2 3 4 4 4 4 5 5 5 4 3 2 2 3 4 5 5 5 6 7 6 7 6 5 4 3 2 2 2 3 3 4 4 7 11 12 12 12 12 11 10 8 7
1 2 3 4 4 4 4 5 5 5 4 3 3 3 3 5 5 5 5 7 6 7 7 5 4 3 2 2 2 3 3 4 4 4 6 7 11 14 14 13 12 11 9
2 3 3 3 3 4 4 5 5 6 6 5 3 2 2 3 4 4 3 4 5 4 4 4 3 3 3 3 3 3 5 3 4 4 4 5 6 6 7 12 14 14 12
3 3 4 3 3 4 4 6 7 6 6 6 4 3 2 2 3 3 5 6 6 4 4 3 3 4 4 4 3 3 3 3 3 4 5 4 4 6 7 7 11 14 14
5 5 4 3 3 3 4 3 7 6 5 5 5 4 2 2 3 2 3 5 6 9 8 4 4 5 3 4 4 4 4 4 3 3 3 3 3 5 6 7 14 16 16
4 4 4 3 2 4 7 5 3 4 4 4 4 4 3 3 3 3 3 3 4 5 6 5 5 4 3 3 3 3 4 3 2 2 3 3 2 3 3 5 13 16 16
6 6 5 5 5 6 10 6 2 2 2 2 3 3 4 4 6 6 4 5 6 6 8 10 10 8 7 7 5 3 3 2 2 2 4 3 2 2 2 3 5 10 13
5 5 6 6 6 6 12 11 5 2 1 0 1 2 4 5 7 5 5 5 7 6 4 4 7 8 7 6 8 6 4 3 2 2 3 3 2 1 3 1 1 2 4
Wind_Direction
159 168 180 167 136 134 144 127 123 129 128 120 117 110 92 66 50 36 6 18 21 22 37 183 180 205 216 199 191 187 181 168 164 161 162 157 154 146 127 108 82 60 28
167 173 181 172 149 158 160 144 137 131 129 130 124 121 111 72 46 46 32 15 17 22 40 98 128 131 142 146 140 146 151 142 133 124 119 118 125 121 107 93 82 60 6
176 173 177 182 167 162 159 138 117 103 115 119 124 131 126 100 57 40 36 28 11 18 31 66 102 109 114 120 115 114 116 110 103 96 86 81 76 66 38 6 21 208 330
178 170 182 194 173 158 159 154 140 133 137 138 145 155 142 132 75 36 40 37 25 17 22 43 66 87 106 113 111 109 109 109 107 104 99 94 88 71 331 291 286 185 134
190 183 196 197 170 162 167 172 157 156 161 159 149 99 90 163 264 48 55 43 30 25 23 30 45 56 74 85 102 115 117 118 119 119 111 103 102 152 281 321 20 64 27
187 184 199 191 171 165 169 174 170 157 144 146 116 55 20 14 16 35 50 43 21 24 26 28 22 32 53 57 66 101 115 122 121 124 115 99 86 102 238 259 267 282 293
187 184 187 174 172 173 171 166 160 163 141 134 105 53 0 11 3 334 10 34 346 348 10 22 22 17 32 46 49 65 75 101 100 96 95 85 71 69 255 280 281 292 287
180 182 177 175 174 157 154 164 162 154 146 148 134 116 22 337 325 324 335 243 254 287 270 278 36 40 44 39 35 55 57 78 88 86 80 73 58 70 160 275 344 356 356
168 165 172 170 174 168 176 183 176 166 166 175 161 146 155 210 300 312 287 268 239 243 255 258 227 161 91 60 22 38 59 57 69 75 73 71 65 68 83 89 73 62 62
163 167 169 171 172 176 183 192 186 177 160 168 170 154 140 142 143 297 304 289 258 237 234 232 220 214 212 218 252 74 69 56 63 73 70 67 73 81 82 79 75 71 68
174 177 173 175 180 185 187 180 174 183 182 177 171 163 151 127 150 192 263 297 297 256 230 225 218 213 211 211 215 222 96 64 63 63 54 61 66 79 83 78 73 66 59
184 185 177 181 186 188 185 181 181 189 197 194 192 188 171 161 178 187 198 242 267 275 240 225 220 217 209 205 211 210 182 142 94 75 59 59 57 62 70 66 56 43 33
181 182 171 183 186 187 187 185 183 190 194 203 208 211 199 178 155 167 166 183 240 278 282 242 222 215 212 200 209 214 205 189 167 134 98 73 58 57 56 47 34 18 6
163 161 176 183 183 185 195 194 190 193 192 208 216 210 203 197 176 172 163 157 198 265 270 259 225 212 214 203 207 207 208 203 193 184 166 146 120 85 70 51 32 13 359
186 171 170 174 182 193 198 188 202 212 203 214 221 213 205 199 193 187 169 160 172 216 259 249 241 218 206 204 203 196 198 211 203 200 198 195 191 179 168 164 356 337 329
184 149 150 164 172 186 191 189 210 226 224 223 213 215 210 196 198 198 189 180 186 194 229 245 239 229 195 209 208 198 202 211 210 205 207 208 206 201 200 205 224 272 298
172 181 187 185 189 193 195 196 218 222 231 239 238 237 237 208 201 200 196 194 199 196 221 237 232 222 198 199 195 192 198 204 208 211 213 215 215 215 220 225 229 248 274
173 182 188 197 206 202 200 204 217 221 219 219 239 262 268 249 224 207 204 210 209 204 210 227 220 209 214 201 184 187 198 207 205 215 219 221 222 222 225 231 234 238 252
177 189 192 204 217 215 209 210 206 213 226 231 233 250 263 253 243 225 218 220 216 210 205 213 211 192 190 154 145 182 201 215 212 217 223 226 227 226 226 228 230 232 240
233 255 242 228 227 229 225 216 203 196 204 224 238 253 262 248 242 233 226 223 214 206 197 196 189 181 178 161 158 180 202 210 222 213 218 222 229 233 233 232 233 233 234
283 265 258 252 240 233 225 209 201 192 188 198 216 240 274 276 255 234 228 219 206 198 188 192 190 183 187 180 200 190 206 184 218 212 212 221 224 230 233 236 237 237 231
312 297 281 263 248 243 252 229 198 194 191 191 196 214 251 276 273 253 247 229 208 193 192 195 205 213 213 205 188 179 179 169 228 202 198 229 203 226 229 228 232 232 230
337 323 313 298 271 278 299 287 214 187 194 200 197 199 220 236 241 244 268 258 233 224 213 197 208 220 212 197 185 192 196 196 213 179 167 240 204 234 234 232 232 234 231
357 345 342 351 6 9 10 359 309 182 190 204 204 203 217 248 248 229 229 243 245 238 227 221 220 225 208 181 185 197 198 202 208 173 165 238 225 234 239 230 233 229 225
25 23 20 21 21 5 6 12 58 121 162 205 214 215 222 245 259 242 221 240 252 254 247 240 238 234 221 210 202 201 197 197 231 216 182 215 249 248 253 252 242 235 225
28 28 29 25 24 13 14 25 57 80 90 132 238 248 249 262 275 272 218 223 244 253 242 247 247 247 236 228 228 232 227 211 197 226 180 192 247 249 294 274 311 291 242